Location: Avenches
(46.8809°N, 7.0410°E)
Time: 22:56:04
(UTC+00:00)

Terra - Pass Details

Date: 30 March 2020
Orbit: 701 x 703 km, 98.2° (Epoch: 03 June)

Event Time Altitude Azimuth Distance (km) Brightness Sun altitude
Exits shadow 21:32:04 38° 342° (NNW) 1,074 3.1 -32.0°
Drops below altitude 10° 21:35:00 10° 345° (NNW) 2,182 5.1 -32.4°
Sets 21:37:16 0° 346° (NNW) 3,105 6.1 -32.6°
